{"data":{"norad_id":63865,"epoch":"2026-05-25T03:16:54.429312Z","epoch_age_seconds":66508,"freshness":"FRESH","line1":"1 63865U 25094B   26145.13674108  .00003531  00000+0  30348-3 0  9998","line2":"2 63865  70.0023  41.7334 0002849 268.9456  91.1376 14.98338529 58874","mean_motion":14.98338529,"eccentricity":0.0002849,"inclination_deg":70.0023,"raan_deg":41.7334,"arg_perigee_deg":268.9456,"mean_anomaly_deg":91.1376,"bstar":0.00030348,"rev_number":5887,"period_min":96.106452055335,"perigee_km":570.04941340023,"apogee_km":574.00961828095,"semimajor_km":6950.1665158406,"source":"CELESTRAK","updated_at":"2026-05-25T13:38:20.168625Z"}}